DWEW6128 Weather Reports


time (UTC)temp
C
wind
direction
speed
KPH
gust
KPH
rain 1hr
cm
rain 24hr
cm
rain mn
cm
humidity
%
barometer
mb
20200525080603 20 0 9.7 20.9 0.00 0.00 0.00 46 1024.7
20200525080106 20 0 4.8 14.5 0.00 0.00 0.00 47 1024.7
20200525075602 20 0 6.4 14.5 0.00 0.00 0.00 47 1024.7
20200525075102 20 0 8.0 20.9 0.00 0.00 0.00 46 1024.7
20200525074603 20 0 8.0 16.1 0.00 0.00 0.00 47 1024.7
20200525074104 20 0 4.8 12.9 0.00 0.00 0.00 48 1024.7
20200525073603 20 0 6.4 14.5 0.00 0.00 0.00 49 1024.7
20200525073103 20 0 8.0 19.3 0.00 0.00 0.00 50 1024.7
20200525072103 20 0 6.4 16.1 0.00 0.00 0.00 50 1024.7
20200525071603 20 0 4.8 11.3 0.00 0.00 0.00 53 1024.7
20200525071103 20 0 9.7 20.9 0.00 0.00 0.00 53 1024.6
20200525070603 20 0 4.8 14.5 0.00 0.00 0.00 53 1024.6
20200525070105 20 0 4.8 19.3 0.00 0.00 0.00 53 1024.6
20200525065602 20 0 6.4 14.5 0.00 0.00 0.00 54 1024.6
20200525065103 20 0 8.0 16.1 0.00 0.00 0.00 54 1024.6
20200525064602 19 0 6.4 19.3 0.00 0.00 0.00 54 1024.6
20200525064103 19 0 6.4 12.9 0.00 0.00 0.00 56 1024.6
20200525063603 19 0 4.8 14.5 0.00 0.00 0.00 56 1024.6
20200525063102 19 0 4.8 19.3 0.00 0.00 0.00 59 1024.6
20200525062603 19 0 6.4 19.3 0.00 0.00 0.00 60 1024.6
20200525062103 18 0 4.8 9.7 0.00 0.00 0.00 62 1024.6
20200525061602 18 0 4.8 11.3 0.00 0.00 0.00 63 1024.6
20200525061104 18 0 3.2 16.1 0.00 0.00 0.00 66 1024.6
20200525060604 18 0 4.8 16.1 0.00 0.00 0.00 68 1024.6
20200525060104 17 16 4.8 12.9 0.00 0.00 0.00 72 1024.6
20200525055602 17 306 4.8 12.9 0.00 0.00 0.00 74 1024.5
20200525055102 17 328 4.8 9.7 0.00 0.00 0.00 78 1024.2
20200525054603 17 344 4.8 9.7 0.00 0.00 0.00 81 1024.2
20200525054103 17 336 3.2 11.3 0.00 0.00 0.00 83 1024.2
20200525053602 17 311 1.6 4.8 0.00 0.00 0.00 84 1024.2
20200525053102 17 322 4.8 11.3 0.00 0.00 0.00 85 1024.2
20200525052602 17 325 4.8 9.7 0.00 0.00 0.00 85 1024.2
20200525052102 17 359 3.2 4.8 0.00 0.00 0.00 85 1024.2
20200525051602 17 310 3.2 4.8 0.00 0.00 0.00 85 1024.2
20200525051103 17 304 3.2 4.8 0.00 0.00 0.00 84 1024.2
20200525050603 17 325 3.2 8.0 0.00 0.00 0.00 84 1024.2
20200525050104 17 12 3.2 8.0 0.00 0.00 0.00 84 1024.2
20200525045604 17 319 3.2 8.0 0.00 0.00 0.00 84 1024.1
20200525045102 17 298 1.6 4.8 0.00 0.00 0.00 84 1024.1
20200525044603 17 305 1.6 4.8 0.00 0.00 0.00 85 1024.1
20200525044103 17 315 1.6 4.8 0.00 0.00 0.00 86 1024.1
20200525043603 16 341 1.6 4.8 0.00 0.00 0.00 86 1024.1
20200525043102 16 299 1.6 4.8 0.00 0.00 0.00 87 1024.1
20200525042602 16 288 3.2 4.8 0.00 0.00 0.00 88 1024.1
20200525042102 16 294 1.6 4.8 0.00 0.00 0.00 89 1023.8
20200525041603 16 300 1.6 4.8 0.00 0.00 0.00 89 1023.8
20200525041102 16 310 1.6 4.8 0.00 0.00 0.00 90 1023.8
20200525040604 16 304 3.2 4.8 0.00 0.00 0.00 90 1023.8
20200525040105 16 326 1.6 4.8 0.00 0.00 0.00 90 1023.8
20200525035602 15 285 3.2 4.8 0.00 0.00 0.00 90 1023.8
20200525035103 15 306 3.2 4.8 0.00 0.00 0.00 91 1023.8
20200525034603 15 295 3.2 4.8 0.00 0.00 0.00 91 1023.8
20200525034102 15 287 3.2 4.8 0.00 0.00 0.00 91 1023.8
20200525033602 15 294 3.2 9.7 0.00 0.00 0.00 91 1023.8
20200525033102 15 285 4.8 11.3 0.00 0.00 0.00 91 1023.8
20200525032603 15 288 4.8 9.7 0.00 0.00 0.00 91 1023.8
20200525032102 15 289 4.8 9.7 0.00 0.00 0.00 91 1023.8
20200525031602 15 0 4.8 4.8 0.00 0.00 0.00 91 1023.8
20200525031103 15 0 3.2 4.8 0.00 0.00 0.00 91 1023.8
20200525030603 16 336 3.2 4.8 0.00 0.00 0.00 91 1023.8
20200525030105 16 0 3.2 4.8 0.00 0.00 0.00 91 1023.8
20200525025602 16 0 3.2 4.8 0.00 0.00 0.00 91 1023.8
20200525025103 16 0 3.2 4.8 0.00 0.00 0.00 91 1023.8
20200525024602 16 0 4.8 8.0 0.00 0.00 0.00 90 1023.8
20200525024103 16 353 4.8 4.8 0.00 0.00 0.00 90 1023.8
20200525023603 16 335 3.2 4.8 0.00 0.00 0.00 90 1023.8
20200525023103 16 0 1.6 4.8 0.00 0.00 0.00 90 1023.8
20200525022602 16 313 1.6 4.8 0.00 0.00 0.00 90 1023.8
20200525022102 16 0 1.6 3.2 0.00 0.00 0.00 90 1023.8
20200525021604 16 307 1.6 4.8 0.00 0.00 0.00 90 1023.9
20200525021103 16 0 3.2 4.8 0.00 0.00 0.00 90 1023.9
20200525020602 16 311 3.2 4.8 0.00 0.00 0.00 90 1023.9
20200525020105 16 0 3.2 4.8 0.00 0.00 0.00 90 1023.9
20200525015602 16 302 3.2 4.8 0.00 0.00 0.00 90 1023.9
20200525015103 16 284 3.2 8.0 0.00 0.00 0.00 89 1023.9
20200525014603 16 288 4.8 9.7 0.00 0.00 0.00 89 1023.9
20200525014102 16 282 3.2 8.0 0.00 0.00 0.00 89 1023.9
20200525013602 16 284 4.8 8.0 0.00 0.00 0.00 88 1023.9
20200525013102 16 288 4.8 9.7 0.00 0.00 0.00 88 1023.9
20200525012602 16 278 4.8 9.7 0.00 0.00 0.00 88 1023.9
20200525012102 17 282 3.2 8.0 0.00 0.00 0.00 87 1024.0
20200525011602 17 277 3.2 4.8 0.00 0.00 0.00 87 1024.0
20200525011103 17 289 3.2 4.8 0.00 0.00 0.00 86 1024.0
20200525010602 17 291 3.2 4.8 0.00 0.00 0.00 86 1024.0
20200525010105 17 305 1.6 4.8 0.00 0.00 0.00 86 1024.0
20200525005603 17 290 1.6 4.8 0.00 0.00 0.00 86 1023.9
20200525005103 17 292 1.6 4.8 0.00 0.00 0.00 86 1023.9
20200525004602 17 296 1.6 4.8 0.00 0.00 0.00 87 1023.9
20200525004102 17 291 1.6 4.8 0.00 0.00 0.00 87 1023.9
20200525003603 17 300 1.6 3.2 0.00 0.00 0.00 87 1023.9
20200525003103 17 295 1.6 3.2 0.00 0.00 0.00 87 1023.9
20200525002602 17 291 1.6 4.8 0.00 0.00 0.00 86 1024.0
20200525002102 17 290 1.6 4.8 0.00 0.00 0.00 86 1024.0
20200525001603 17 288 3.2 4.8 0.00 0.00 0.00 85 1024.0
20200525001103 17 289 3.2 4.8 0.00 0.00 0.00 85 1024.0
20200525000602 17 293 3.2 4.8 0.00 0.00 0.00 84 1024.0
20200525000105 17 308 1.6 4.8 0.00 0.00 0.00 85 1023.9
20200524235603 17 321 3.2 8.0 0.00 0.00 0.00 85 1023.9
20200524235102 17 347 1.6 8.0 0.00 0.00 0.00 86 1024.2
20200524234602 17 324 3.2 8.0 0.00 0.00 0.00 87 1024.2
20200524234102 17 344 3.2 8.0 0.00 0.00 0.00 88 1024.2
20200524233602 17 323 4.8 14.5 0.00 0.00 0.00 88 1024.2
20200524233103 17 320 0.0 3.2 0.00 0.00 0.00 89 1024.2
20200524232602 17 321 1.6 4.8 0.00 0.00 0.00 89 1024.3
20200524232102 17 290 3.2 4.8 0.00 0.00 0.00 89 1024.3
20200524231602 16 288 3.2 4.8 0.00 0.00 0.00 89 1024.3
20200524231103 16 292 3.2 4.8 0.00 0.00 0.00 88 1024.3
20200524230602 16 289 3.2 4.8 0.00 0.00 0.00 89 1024.3
20200524230104 16 289 3.2 4.8 0.00 0.00 0.00 89 1024.3
20200524225603 16 288 3.2 4.8 0.00 0.00 0.00 88 1024.4
20200524225102 16 281 3.2 4.8 0.00 0.00 0.00 88 1024.4
20200524224603 17 278 4.8 4.8 0.00 0.00 0.00 88 1024.4
20200524224102 17 289 3.2 4.8 0.00 0.00 0.00 88 1024.4
20200524223603 17 287 3.2 4.8 0.00 0.00 0.00 88 1024.4
20200524223103 17 289 3.2 4.8 0.00 0.00 0.00 87 1024.5
20200524222602 17 281 3.2 4.8 0.00 0.00 0.00 87 1024.5
20200524222102 17 285 3.2 4.8 0.00 0.00 0.00 86 1024.4
20200524221602 17 287 3.2 4.8 0.00 0.00 0.00 86 1024.4
20200524221106 17 292 1.6 3.2 0.00 0.00 0.00 86 1024.4
20200524220601 17 283 1.6 4.8 0.00 0.00 0.00 86 1024.4
20200524220104 17 288 1.6 3.2 0.00 0.00 0.00 85 1024.4
20200524215602 17 287 3.2 4.8 0.00 0.00 0.00 85 1024.6
20200524215102 18 274 3.2 4.8 0.00 0.00 0.00 84 1024.6
20200524214603 18 289 3.2 4.8 0.00 0.00 0.00 84 1024.6
20200524214102 18 288 1.6 3.2 0.00 0.00 0.00 84 1024.6
20200524213602 18 307 1.6 4.8 0.00 0.00 0.00 84 1024.6
20200524213102 18 318 1.6 4.8 0.00 0.00 0.00 84 1024.6
20200524212603 18 296 1.6 3.2 0.00 0.00 0.00 85 1024.6
20200524212102 18 289 3.2 4.8 0.00 0.00 0.00 85 1024.6
20200524211602 18 292 1.6 4.8 0.00 0.00 0.00 85 1024.6
20200524211102 18 287 3.2 4.8 0.00 0.00 0.00 86 1023.4
20200524210602 18 290 1.6 4.8 0.00 0.00 0.00 86 1023.4
20200524210105 18 283 1.6 4.8 0.00 0.00 0.00 86 1023.4
20200524205604 18 289 3.2 4.8 0.00 0.00 0.00 86 1023.4
20200524205103 18 288 1.6 4.8 0.00 0.00 0.00 87 1023.4
20200524204602 18 288 1.6 8.0 0.00 0.00 0.00 86 1023.4
20200524204102 18 285 3.2 8.0 0.00 0.00 0.00 86 1023.4
20200524203602 18 288 1.6 4.8 0.00 0.00 0.00 86 1023.4
20200524203103 18 288 1.6 4.8 0.00 0.00 0.00 86 1023.4
20200524202602 18 286 1.6 4.8 0.00 0.00 0.00 86 1023.4
20200524202102 18 296 1.6 3.2 0.00 0.00 0.00 85 1023.4
20200524201602 18 292 1.6 4.8 0.00 0.00 0.00 85 1023.4
20200524201103 18 286 3.2 4.8 0.00 0.00 0.00 84 1023.4
20200524200602 18 289 1.6 4.8 0.00 0.00 0.00 83 1023.4
20200524200104 18 281 1.6 4.8 0.00 0.00 0.00 83 1023.4
20200524195602 18 287 1.6 4.8 0.00 0.00 0.00 82 1023.4
20200524195102 19 287 1.6 3.2 0.00 0.00 0.00 81 1023.4
20200524194602 19 289 1.6 3.2 0.00 0.00 0.00 81 1023.4
20200524194102 19 296 1.6 4.8 0.00 0.00 0.00 81 1023.4
20200524193601 19 299 1.6 3.2 0.00 0.00 0.00 81 1023.4
20200524193102 19 337 1.6 3.2 0.00 0.00 0.00 81 1023.4
20200524192603 19 316 1.6 3.2 0.00 0.00 0.00 80 1023.4
20200524192102 19 337 1.6 4.8 0.00 0.00 0.00 80 1023.4
20200524191602 19 289 1.6 3.2 0.00 0.00 0.00 80 1023.4
20200524191102 19 290 1.6 1.6 0.00 0.00 0.00 79 1023.4
20200524190602 20 292 1.6 3.2 0.00 0.00 0.00 79 1023.4
20200524190104 20 302 1.6 4.8 0.00 0.00 0.00 79 1023.4
20200524185601 20 292 1.6 3.2 0.00 0.00 0.00 78 1023.4
20200524185102 20 310 1.6 3.2 0.00 0.00 0.00 78 1023.4
20200524184601 20 311 1.6 3.2 0.00 0.00 0.00 78 1023.4
20200524184102 20 327 1.6 3.2 0.00 0.00 0.00 78 1023.4
20200524183602 20 0 1.6 4.8 0.00 0.00 0.00 77 1023.4
20200524183102 20 0 3.2 4.8 0.00 0.00 0.00 76 1023.4
20200524182602 20 0 1.6 4.8 0.00 0.00 0.00 76 1023.4
20200524182102 20 0 3.2 8.0 0.00 0.00 0.00 75 1022.4
20200524181602 20 0 3.2 4.8 0.00 0.00 0.00 74 1022.4
20200524181101 21 0 4.8 11.3 0.00 0.00 0.00 72 1022.4
20200524180602 21 0 3.2 4.8 0.00 0.00 0.00 71 1022.4
20200524180104 21 0 3.2 9.7 0.00 0.00 0.00 69 1022.4
20200524175602 21 0 3.2 8.0 0.00 0.00 0.00 68 1022.4
20200524175102 21 0 3.2 8.0 0.00 0.00 0.00 67 1022.4
20200524174602 22 0 1.6 3.2 0.00 0.00 0.00 65 1022.4
20200524174102 22 0 3.2 8.0 0.00 0.00 0.00 64 1022.4
20200524173602 22 0 4.8 11.3 0.00 0.00 0.00 64 1022.4
20200524173102 22 0 3.2 4.8 0.00 0.00 0.00 63 1022.4
20200524172602 22 0 3.2 8.0 0.00 0.00 0.00 62 1022.4
20200524172102 22 0 1.6 4.8 0.00 0.00 0.00 61 1022.4
20200524171602 22 0 1.6 4.8 0.00 0.00 0.00 60 1022.4
20200524171102 22 0 1.6 4.8 0.00 0.00 0.00 60 1022.4
20200524170603 22 0 3.2 4.8 0.00 0.00 0.00 59 1022.4
20200524170104 22 0 1.6 4.8 0.00 0.00 0.00 58 1022.4
20200524165602 22 0 1.6 8.0 0.00 0.00 0.00 58 1022.4
20200524165102 22 0 1.6 8.0 0.00 0.00 0.00 57 1022.4
20200524164601 22 0 1.6 4.8 0.00 0.00 0.00 57 1022.4
20200524164101 23 0 1.6 4.8 0.00 0.00 0.00 57 1022.4
20200524163601 23 10 3.2 4.8 0.00 0.00 0.00 56 1022.4
20200524163102 23 357 1.6 4.8 0.00 0.00 0.00 57 1022.4
20200524162602 23 323 1.6 4.8 0.00 0.00 0.00 57 1022.4
20200524162101 23 322 1.6 4.8 0.00 0.00 0.00 58 1022.4
20200524161601 23 339 3.2 9.7 0.00 0.00 0.00 58 1022.4
20200524161102 23 334 3.2 4.8 0.00 0.00 0.00 57 1022.4
20200524160601 23 331 3.2 9.7 0.00 0.00 0.00 57 1022.4
20200524160104 24 5 3.2 12.9 0.00 0.00 0.00 56 1022.4
20200524155601 24 324 3.2 9.7 0.00 0.00 0.00 58 1022.6
20200524155102 23 296 1.6 4.8 0.00 0.00 0.00 59 1022.6
20200524154602 23 317 4.8 9.7 0.00 0.00 0.00 59 1022.6
20200524154102 23 328 8.0 16.1 0.00 0.00 0.00 57 1022.6
20200524153601 23 339 6.4 14.5 0.00 0.00 0.00 57 1022.6
20200524153101 23 339 4.8 11.3 0.00 0.00 0.00 58 1022.6
20200524152602 24 330 4.8 11.3 0.00 0.00 0.00 57 1022.6
20200524152101 24 353 3.2 11.3 0.00 0.00 0.00 58 1022.6
20200524151602 24 333 4.8 12.9 0.00 0.00 0.00 57 1022.6
20200524151102 25 318 4.8 9.7 0.00 0.00 0.00 56 1022.6
20200524150602 25 351 3.2 8.0 0.00 0.00 0.00 54 1022.6
20200524150104 25 320 4.8 11.3 0.00 0.00 0.00 55 1022.6
20200524145602 25 313 3.2 11.3 0.00 0.00 0.00 55 1022.4
20200524145102 25 322 4.8 12.9 0.00 0.00 0.00 55 1022.4
20200524144602 25 309 3.2 9.7 0.00 0.00 0.00 56 1022.4
20200524144102 25 303 3.2 11.3 0.00 0.00 0.00 55 1022.4
20200524143602 25 316 3.2 4.8 0.00 0.00 0.00 55 1022.1
20200524143102 25 309 4.8 14.5 0.00 0.00 0.00 55 1022.1
20200524142601 25 320 3.2 9.7 0.00 0.00 0.00 56 1022.1
20200524142102 25 327 4.8 11.3 0.00 0.00 0.00 54 1022.1
20200524141601 25 338 4.8 8.0 0.00 0.00 0.00 55 1022.1
20200524141101 25 316 4.8 16.1 0.00 0.00 0.00 55 1022.1
20200524140602 25 320 4.8 9.7 0.00 0.00 0.00 55 1022.1
20200524140104 25 302 4.8 14.5 0.00 0.00 0.00 55 1022.1
20200524135602 25 337 8.0 14.5 0.00 0.00 0.00 54 1022.1
20200524135101 25 318 4.8 16.1 0.00 0.00 0.00 55 1022.1
20200524134601 25 352 4.8 14.5 0.00 0.00 0.00 55 1022.1
20200524134101 25 332 6.4 16.1 0.00 0.00 0.00 54 1022.1
20200524133601 25 310 4.8 11.3 0.00 0.00 0.00 54 1022.1
20200524133101 25 298 8.0 19.3 0.00 0.00 0.00 54 1022.1
20200524132602 26 336 3.2 12.9 0.00 0.00 0.00 53 1022.1
20200524132103 26 338 8.0 16.1 0.00 0.00 0.00 51 1022.1
20200524131602 26 354 3.2 12.9 0.00 0.00 0.00 52 1022.1
20200524131101 26 312 4.8 14.5 0.00 0.00 0.00 50 1022.1
20200524130603 26 333 4.8 14.5 0.00 0.00 0.00 49 1022.1
20200524130104 26 292 3.2 9.7 0.00 0.00 0.00 51 1022.1
20200524125601 26 340 8.0 12.9 0.00 0.00 0.00 50 1022.1
20200524125103 26 0 3.2 4.8 0.00 0.00 0.00 50 1021.8
20200524124601 26 326 4.8 12.9 0.00 0.00 0.00 51 1021.8
20200524124101 26 294 3.2 8.0 0.00 0.00 0.00 53 1021.8
20200524123602 26 353 4.8 12.9 0.00 0.00 0.00 52 1021.8
20200524123102 26 0 4.8 11.3 0.00 0.00 0.00 51 1021.8
20200524122602 26 0 3.2 9.7 0.00 0.00 0.00 51 1021.8
20200524122102 26 0 4.8 9.7 0.00 0.00 0.00 50 1021.7
20200524121601 26 0 4.8 9.7 0.00 0.00 0.00 48 1021.7
20200524121102 27 0 3.2 9.7 0.00 0.00 0.00 48 1021.7
20200524120601 27 0 6.4 19.3 0.00 0.00 0.00 46 1021.7
20200524120103 27 0 4.8 14.5 0.00 0.00 0.00 45 1021.7
20200524115602 27 0 3.2 14.5 0.00 0.00 0.00 44 1021.8
20200524115101 27 0 4.8 12.9 0.00 0.00 0.00 43 1021.8
20200524114601 27 0 4.8 14.5 0.00 0.00 0.00 42 1021.8
20200524114102 28 0 4.8 11.3 0.00 0.00 0.00 41 1021.8
20200524113602 28 0 4.8 11.3 0.00 0.00 0.00 40 1021.8
20200524113101 28 0 3.2 8.0 0.00 0.00 0.00 41 1021.8
20200524112602 27 0 3.2 11.3 0.00 0.00 0.00 41 1021.8
20200524112101 27 0 4.8 11.3 0.00 0.00 0.00 41 1021.8
20200524111601 27 0 4.8 8.0 0.00 0.00 0.00 42 1021.8
20200524111101 27 0 3.2 12.9 0.00 0.00 0.00 42 1021.8
20200524110601 27 0 3.2 11.3 0.00 0.00 0.00 41 1021.8
20200524110104 27 0 3.2 11.3 0.00 0.00 0.00 40 1021.8
20200524105601 28 0 3.2 8.0 0.00 0.00 0.00 40 1021.8
20200524105101 28 0 4.8 11.3 0.00 0.00 0.00 40 1022.0
20200524104601 28 0 4.8 11.3 0.00 0.00 0.00 40 1022.0
20200524104101 28 0 3.2 11.3 0.00 0.00 0.00 40 1022.0
20200524103602 28 0 4.8 11.3 0.00 0.00 0.00 40 1022.0
20200524103101 27 0 3.2 14.5 0.00 0.00 0.00 40 1022.0
20200524102601 28 0 4.8 14.5 0.00 0.00 0.00 40 1022.0
20200524102101 27 0 3.2 11.3 0.00 0.00 0.00 40 1022.0
20200524101601 27 0 3.2 12.9 0.00 0.00 0.00 41 1022.0
20200524101101 27 0 4.8 16.1 0.00 0.00 0.00 41 1022.0
20200524100601 27 0 6.4 11.3 0.00 0.00 0.00 42 1022.0
20200524100103 27 0 3.2 14.5 0.00 0.00 0.00 42 1022.0
20200524095601 27 0 4.8 14.5 0.00 0.00 0.00 42 1022.0
20200524095102 27 0 4.8 12.9 0.00 0.00 0.00 41 1022.0
20200524094601 27 0 4.8 20.9 0.00 0.00 0.00 41 1022.0
20200524094101 27 0 3.2 11.3 0.00 0.00 0.00 41 1022.0
20200524093601 27 0 3.2 11.3 0.00 0.00 0.00 41 1022.0
20200524093102 27 0 3.2 9.7 0.00 0.00 0.00 40 1022.0
20200524092601 27 0 3.2 9.7 0.00 0.00 0.00 41 1022.0
20200524092101 27 0 4.8 9.7 0.00 0.00 0.00 41 1022.0
20200524091607 27 0 4.8 14.5 0.00 0.00 0.00 40 1022.0
20200524091101 28 0 4.8 12.9 0.00 0.00 0.00 40 1022.0
20200524090601 27 0 3.2 9.7 0.00 0.00 0.00 40 1022.0
20200524090110 27 0 3.2 11.3 0.00 0.00 0.00 40 1022.0
20200524085601 27 0 3.2 8.0 0.00 0.00 0.00 39 1021.8
20200524085102 27 0 4.8 9.7 0.00 0.00 0.00 38 1021.8
20200524084602 27 0 1.6 4.8 0.00 0.00 0.00 38 1021.8
20200524084102 27 0 3.2 8.0 0.00 0.00 0.00 38 1021.8
20200524083601 27 0 3.2 4.8 0.00 0.00 0.00 39 1021.8
20200524083101 26 0 1.6 9.7 0.00 0.00 0.00 40 1021.8
20200524082602 26 0 3.2 9.7 0.00 0.00 0.00 39 1021.8
20200524082102 26 0 9.7 12.9 0.00 0.00 0.00 39 1021.8
20200524081602 26 0 4.8 9.7 0.00 0.00 0.00 39 1021.8
20200524081101 26 0 3.2 4.8 0.00 0.00 0.00 39 1021.8